Year,Month,Day,Hour,Minute,Value (Times are PST for temperature in C)
2019,03,17,00,00,5.10
2019,03,17,00,01,5.10
2019,03,17,00,02,5.10
2019,03,17,00,03,5.10
2019,03,17,00,04,5.00
2019,03,17,00,05,5.00
2019,03,17,00,06,5.00
2019,03,17,00,07,4.90
2019,03,17,00,08,4.90
2019,03,17,00,09,4.90
2019,03,17,00,10,4.90
2019,03,17,00,11,4.80
2019,03,17,00,12,4.80
2019,03,17,00,13,4.80
2019,03,17,00,14,4.80
2019,03,17,00,15,4.80
2019,03,17,00,16,4.80
2019,03,17,00,17,4.80
2019,03,17,00,18,4.80
2019,03,17,00,19,4.80
2019,03,17,00,20,4.80
2019,03,17,00,21,4.80
2019,03,17,00,22,4.80
2019,03,17,00,23,4.80
2019,03,17,00,24,4.80
2019,03,17,00,25,4.80
2019,03,17,00,26,4.80
2019,03,17,00,27,4.80
2019,03,17,00,28,4.70
2019,03,17,00,29,4.70
2019,03,17,00,30,4.70
2019,03,17,00,31,4.70
2019,03,17,00,32,4.70
2019,03,17,00,33,4.70
2019,03,17,00,34,4.70
2019,03,17,00,35,4.70
2019,03,17,00,36,4.70
2019,03,17,00,37,4.70
2019,03,17,00,38,4.70
2019,03,17,00,39,4.70
2019,03,17,00,40,4.60
2019,03,17,00,41,4.60
2019,03,17,00,42,4.60
2019,03,17,00,43,4.60
2019,03,17,00,44,4.60
2019,03,17,00,45,4.60
2019,03,17,00,46,4.60
2019,03,17,00,47,4.50
2019,03,17,00,48,4.50
2019,03,17,00,49,4.50
2019,03,17,00,50,4.50
2019,03,17,00,51,4.40
2019,03,17,00,52,4.40
2019,03,17,00,53,4.40
2019,03,17,00,54,4.40
2019,03,17,00,55,4.40
2019,03,17,00,56,4.40
2019,03,17,00,57,4.40
2019,03,17,00,58,4.30
2019,03,17,00,59,4.30
2019,03,17,01,00,4.30
2019,03,17,01,01,4.30
2019,03,17,01,02,4.30
2019,03,17,01,03,4.20
2019,03,17,01,04,4.20
2019,03,17,01,05,4.20
2019,03,17,01,06,4.20
2019,03,17,01,07,4.10
2019,03,17,01,08,4.10
2019,03,17,01,09,4.10
2019,03,17,01,10,4.10
2019,03,17,01,11,4.00
2019,03,17,01,12,4.00
2019,03,17,01,13,4.00
2019,03,17,01,14,4.00
2019,03,17,01,15,4.00
2019,03,17,01,16,4.00
2019,03,17,01,17,4.00
2019,03,17,01,18,4.00
2019,03,17,01,19,4.00
2019,03,17,01,20,3.90
2019,03,17,01,21,3.90
2019,03,17,01,22,3.90
2019,03,17,01,23,3.90
2019,03,17,01,24,3.90
2019,03,17,01,25,3.90
2019,03,17,01,26,3.90
2019,03,17,01,27,3.90
2019,03,17,01,28,3.90
2019,03,17,01,29,3.90
2019,03,17,01,30,3.90
2019,03,17,01,31,3.90
2019,03,17,01,32,3.90
2019,03,17,01,33,3.90
2019,03,17,01,34,3.90
2019,03,17,01,35,3.90
2019,03,17,01,36,3.80
2019,03,17,01,37,3.80
2019,03,17,01,38,3.80
2019,03,17,01,39,3.80
2019,03,17,01,40,3.80
2019,03,17,01,41,3.80
2019,03,17,01,42,3.90
2019,03,17,01,43,3.80
2019,03,17,01,44,3.80
2019,03,17,01,45,3.80
2019,03,17,01,46,3.80
2019,03,17,01,47,3.80
2019,03,17,01,48,3.80
2019,03,17,01,49,3.80
2019,03,17,01,50,3.80
2019,03,17,01,51,3.80
2019,03,17,01,52,3.70
2019,03,17,01,53,3.70
2019,03,17,01,54,3.70
2019,03,17,01,55,3.70
2019,03,17,01,56,3.60
2019,03,17,01,57,3.60
2019,03,17,01,58,3.60
2019,03,17,01,59,3.60
2019,03,17,02,00,3.60
2019,03,17,02,01,3.60
2019,03,17,02,02,3.60
2019,03,17,02,03,3.50
2019,03,17,02,04,3.50
2019,03,17,02,05,3.50
2019,03,17,02,06,3.50
2019,03,17,02,07,3.50
2019,03,17,02,08,3.50
2019,03,17,02,09,3.40
2019,03,17,02,10,3.40
2019,03,17,02,11,3.40
2019,03,17,02,12,3.40
2019,03,17,02,13,3.40
2019,03,17,02,14,3.40
2019,03,17,02,15,3.40
2019,03,17,02,16,3.40
2019,03,17,02,17,3.40
2019,03,17,02,18,3.40
2019,03,17,02,19,3.40
2019,03,17,02,20,3.40
2019,03,17,02,21,3.40
2019,03,17,02,22,3.40
2019,03,17,02,23,3.40
2019,03,17,02,24,3.30
2019,03,17,02,25,3.30
2019,03,17,02,26,3.30
2019,03,17,02,27,3.30
2019,03,17,02,28,3.30
2019,03,17,02,29,3.30
2019,03,17,02,30,3.20
2019,03,17,02,31,3.20
2019,03,17,02,32,3.20
2019,03,17,02,33,3.20
2019,03,17,02,34,3.20
2019,03,17,02,35,3.20
2019,03,17,02,36,3.20
2019,03,17,02,37,3.20
2019,03,17,02,38,3.20
2019,03,17,02,39,3.20
2019,03,17,02,40,3.10
2019,03,17,02,41,3.10
2019,03,17,02,42,3.10
2019,03,17,02,43,3.10
2019,03,17,02,44,3.10
2019,03,17,02,45,3.10
2019,03,17,02,46,3.10
2019,03,17,02,47,3.20
2019,03,17,02,48,3.20
2019,03,17,02,49,3.20
2019,03,17,02,50,3.20
2019,03,17,02,51,3.20
2019,03,17,02,52,3.10
2019,03,17,02,53,3.10
2019,03,17,02,54,3.10
2019,03,17,02,55,3.10
2019,03,17,02,56,3.20
2019,03,17,02,57,3.20
2019,03,17,02,58,3.20
2019,03,17,02,59,3.20
2019,03,17,03,00,3.20
2019,03,17,03,01,3.20
2019,03,17,03,02,3.10
2019,03,17,03,03,3.10
2019,03,17,03,04,3.10
2019,03,17,03,05,3.10
2019,03,17,03,06,3.00
2019,03,17,03,07,3.00
2019,03,17,03,08,3.00
2019,03,17,03,09,3.00
2019,03,17,03,10,3.00
2019,03,17,03,11,2.90
2019,03,17,03,12,2.90
2019,03,17,03,13,2.90
2019,03,17,03,14,2.90
2019,03,17,03,15,2.90
2019,03,17,03,16,2.90
2019,03,17,03,17,2.90
2019,03,17,03,18,2.90
2019,03,17,03,19,2.90
2019,03,17,03,20,2.90
2019,03,17,03,21,2.90
2019,03,17,03,22,2.90
2019,03,17,03,23,2.90
2019,03,17,03,24,2.90
2019,03,17,03,25,2.90
2019,03,17,03,26,2.90
2019,03,17,03,27,2.90
2019,03,17,03,28,2.90
2019,03,17,03,29,2.90
2019,03,17,03,30,2.90
2019,03,17,03,31,2.80
2019,03,17,03,32,2.80
2019,03,17,03,33,2.80
2019,03,17,03,34,2.80
2019,03,17,03,35,2.80
2019,03,17,03,36,2.80
2019,03,17,03,37,2.80
2019,03,17,03,38,2.70
2019,03,17,03,39,2.70
2019,03,17,03,40,2.70
2019,03,17,03,41,2.70
2019,03,17,03,42,2.70
2019,03,17,03,43,2.60
2019,03,17,03,44,2.60
2019,03,17,03,45,2.60
2019,03,17,03,46,2.60
2019,03,17,03,47,2.60
2019,03,17,03,48,2.60
2019,03,17,03,49,2.60
2019,03,17,03,50,2.60
2019,03,17,03,51,2.60
2019,03,17,03,52,2.60
2019,03,17,03,53,2.60
2019,03,17,03,54,2.60
2019,03,17,03,55,2.60
2019,03,17,03,56,2.60
2019,03,17,03,57,2.60
2019,03,17,03,58,2.60
2019,03,17,03,59,2.60
2019,03,17,04,00,2.60
2019,03,17,04,01,2.60
2019,03,17,04,02,2.60
2019,03,17,04,03,2.60
2019,03,17,04,04,2.50
2019,03,17,04,05,2.50
2019,03,17,04,06,2.50
2019,03,17,04,07,2.40
2019,03,17,04,08,2.40
2019,03,17,04,09,2.40
2019,03,17,04,10,2.40
2019,03,17,04,11,2.40
2019,03,17,04,12,2.40
2019,03,17,04,13,2.40
2019,03,17,04,14,2.30
2019,03,17,04,15,2.30
2019,03,17,04,16,2.30
2019,03,17,04,17,2.40
2019,03,17,04,18,2.40
2019,03,17,04,19,2.50
2019,03,17,04,20,2.50
2019,03,17,04,21,2.60
2019,03,17,04,22,2.70
2019,03,17,04,23,2.90
2019,03,17,04,24,2.90
2019,03,17,04,25,3.00
2019,03,17,04,26,3.10
2019,03,17,04,27,3.10
2019,03,17,04,28,3.20
2019,03,17,04,29,3.20
2019,03,17,04,30,3.20
2019,03,17,04,31,3.20
2019,03,17,04,32,3.20
2019,03,17,04,33,3.20
2019,03,17,04,34,3.20
2019,03,17,04,35,3.10
2019,03,17,04,36,3.10
2019,03,17,04,37,3.10
2019,03,17,04,38,3.00
2019,03,17,04,39,3.00
2019,03,17,04,40,2.90
2019,03,17,04,41,2.90
2019,03,17,04,42,2.80
2019,03,17,04,43,2.80
2019,03,17,04,44,2.70
2019,03,17,04,45,2.60
2019,03,17,04,46,2.50
2019,03,17,04,47,2.40
2019,03,17,04,48,2.40
2019,03,17,04,49,2.30
2019,03,17,04,50,2.30
2019,03,17,04,51,2.30
2019,03,17,04,52,2.20
2019,03,17,04,53,2.20
2019,03,17,04,54,2.20
2019,03,17,04,55,2.20
2019,03,17,04,56,2.20
2019,03,17,04,57,2.20
2019,03,17,04,58,2.20
2019,03,17,04,59,2.10
2019,03,17,05,00,2.10
2019,03,17,05,01,2.10
2019,03,17,05,02,2.10
2019,03,17,05,03,2.10
2019,03,17,05,04,2.10
2019,03,17,05,05,2.00
2019,03,17,05,06,2.00
2019,03,17,05,07,2.00
2019,03,17,05,08,2.00
2019,03,17,05,09,1.90
2019,03,17,05,10,1.90
2019,03,17,05,11,1.90
2019,03,17,05,12,1.90
2019,03,17,05,13,1.90
2019,03,17,05,14,2.00
2019,03,17,05,15,2.00
2019,03,17,05,16,2.10
2019,03,17,05,17,2.10
2019,03,17,05,18,2.10
2019,03,17,05,19,2.20
2019,03,17,05,20,2.20
2019,03,17,05,21,2.20
2019,03,17,05,22,2.20
2019,03,17,05,23,2.20
2019,03,17,05,24,2.20
2019,03,17,05,25,2.20
2019,03,17,05,26,2.30
2019,03,17,05,27,2.30
2019,03,17,05,28,2.30
2019,03,17,05,29,2.30
2019,03,17,05,30,2.30
2019,03,17,05,31,2.40
2019,03,17,05,32,2.40
2019,03,17,05,33,2.40
2019,03,17,05,34,2.40
2019,03,17,05,35,2.40
2019,03,17,05,36,2.40
2019,03,17,05,37,2.40
2019,03,17,05,38,2.40
2019,03,17,05,39,2.40
2019,03,17,05,40,2.40
2019,03,17,05,41,2.30
2019,03,17,05,42,2.30
2019,03,17,05,43,2.30
2019,03,17,05,44,2.30
2019,03,17,05,45,2.20
2019,03,17,05,46,2.20
2019,03,17,05,47,2.20
2019,03,17,05,48,2.20
2019,03,17,05,49,2.20
2019,03,17,05,50,2.20
2019,03,17,05,51,2.20
2019,03,17,05,52,2.30
2019,03,17,05,53,2.30
2019,03,17,05,54,2.30
2019,03,17,05,55,2.30
2019,03,17,05,56,2.30
2019,03,17,05,57,2.30
2019,03,17,05,58,2.30
2019,03,17,05,59,2.30
2019,03,17,06,00,2.20
2019,03,17,06,01,2.20
2019,03,17,06,02,2.20
2019,03,17,06,03,2.10
2019,03,17,06,04,2.10
2019,03,17,06,05,2.10
2019,03,17,06,06,2.00
2019,03,17,06,07,2.00
2019,03,17,06,08,1.90
2019,03,17,06,09,1.90
2019,03,17,06,10,1.90
2019,03,17,06,11,1.90
2019,03,17,06,12,1.80
2019,03,17,06,13,1.80
2019,03,17,06,14,1.80
2019,03,17,06,15,1.80
2019,03,17,06,16,1.70
2019,03,17,06,17,1.70
2019,03,17,06,18,1.70
2019,03,17,06,19,1.70
2019,03,17,06,20,1.70
2019,03,17,06,21,1.70
2019,03,17,06,22,1.70
2019,03,17,06,23,1.70
2019,03,17,06,24,1.70
2019,03,17,06,25,1.70
2019,03,17,06,26,1.70
2019,03,17,06,27,1.70
2019,03,17,06,28,1.70
2019,03,17,06,29,1.70
2019,03,17,06,30,1.70
2019,03,17,06,31,1.70
2019,03,17,06,32,1.70
2019,03,17,06,33,1.70
2019,03,17,06,34,1.70
2019,03,17,06,35,1.70
2019,03,17,06,36,1.70
2019,03,17,06,37,1.70
2019,03,17,06,38,1.70
2019,03,17,06,39,1.60
2019,03,17,06,40,1.60
2019,03,17,06,41,1.60
2019,03,17,06,42,1.60
2019,03,17,06,43,1.60
2019,03,17,06,44,1.60
2019,03,17,06,45,1.60
2019,03,17,06,46,1.60
2019,03,17,06,47,1.60
2019,03,17,06,48,1.60
2019,03,17,06,49,1.60
2019,03,17,06,50,1.60
2019,03,17,06,51,1.60
2019,03,17,06,52,1.60
2019,03,17,06,53,1.70
2019,03,17,06,54,1.70
2019,03,17,06,55,1.80
2019,03,17,06,56,1.80
2019,03,17,06,57,1.80
2019,03,17,06,58,1.80
2019,03,17,06,59,1.80
2019,03,17,07,00,1.80
2019,03,17,07,01,1.70
2019,03,17,07,02,1.70
2019,03,17,07,03,1.70
2019,03,17,07,04,1.70
2019,03,17,07,05,1.70
2019,03,17,07,06,1.70
2019,03,17,07,07,1.70
2019,03,17,07,08,1.70
2019,03,17,07,09,1.70
2019,03,17,07,10,1.60
2019,03,17,07,11,1.60
2019,03,17,07,12,1.60
2019,03,17,07,13,1.60
2019,03,17,07,14,1.60
2019,03,17,07,15,1.60
2019,03,17,07,16,1.60
2019,03,17,07,17,1.60
2019,03,17,07,18,1.60
2019,03,17,07,19,1.60
2019,03,17,07,20,1.60
2019,03,17,07,21,1.60
2019,03,17,07,22,1.60
2019,03,17,07,23,1.60
2019,03,17,07,24,1.60
2019,03,17,07,25,1.60
2019,03,17,07,26,1.60
2019,03,17,07,27,1.60
2019,03,17,07,28,1.60
2019,03,17,07,29,1.60
2019,03,17,07,30,1.60
2019,03,17,07,31,1.60
2019,03,17,07,32,1.60
2019,03,17,07,33,1.50
2019,03,17,07,34,1.50
2019,03,17,07,35,1.50
2019,03,17,07,36,1.50
2019,03,17,07,37,1.50
2019,03,17,07,38,1.40
2019,03,17,07,39,1.40
2019,03,17,07,40,1.40
2019,03,17,07,41,1.40
2019,03,17,07,42,1.40
2019,03,17,07,43,1.40
2019,03,17,07,44,1.40
2019,03,17,07,45,1.40
2019,03,17,07,46,1.40
2019,03,17,07,47,1.40
2019,03,17,07,48,1.40
2019,03,17,07,49,1.40
2019,03,17,07,50,1.40
2019,03,17,07,51,1.40
2019,03,17,07,52,1.40
2019,03,17,07,53,1.40
2019,03,17,07,54,1.40
2019,03,17,07,55,1.40
2019,03,17,07,56,1.40
2019,03,17,07,57,1.50
2019,03,17,07,58,1.50
2019,03,17,07,59,1.60
2019,03,17,08,00,1.60
2019,03,17,08,01,1.60
2019,03,17,08,02,1.60
2019,03,17,08,03,1.60
2019,03,17,08,04,1.60
2019,03,17,08,05,1.60
2019,03,17,08,06,1.60
2019,03,17,08,07,1.60
2019,03,17,08,08,1.70
2019,03,17,08,09,1.70
2019,03,17,08,10,1.70
2019,03,17,08,11,1.80
2019,03,17,08,12,1.80
2019,03,17,08,13,1.80
2019,03,17,08,14,1.80
2019,03,17,08,15,1.80
2019,03,17,08,16,1.80
2019,03,17,08,17,1.80
2019,03,17,08,18,1.80
2019,03,17,08,19,1.80
2019,03,17,08,20,1.80
2019,03,17,08,21,1.80
2019,03,17,08,22,1.80
2019,03,17,08,23,1.80
2019,03,17,08,24,1.80
2019,03,17,08,25,1.80
2019,03,17,08,26,1.80
2019,03,17,08,27,1.80
2019,03,17,08,28,1.80
2019,03,17,08,29,1.80
2019,03,17,08,30,1.80
2019,03,17,08,31,1.80
2019,03,17,08,32,1.80
2019,03,17,08,33,1.90
2019,03,17,08,34,1.90
2019,03,17,08,35,1.90
2019,03,17,08,36,2.00
2019,03,17,08,37,2.00
2019,03,17,08,38,2.00
2019,03,17,08,39,2.10
2019,03,17,08,40,2.10
2019,03,17,08,41,2.10
2019,03,17,08,42,2.10
2019,03,17,08,43,2.10
2019,03,17,08,44,2.20
2019,03,17,08,45,2.20
2019,03,17,08,46,2.30
2019,03,17,08,47,2.30
2019,03,17,08,48,2.30
2019,03,17,08,49,2.40
2019,03,17,08,50,2.40
2019,03,17,08,51,2.40
2019,03,17,08,52,2.40
2019,03,17,08,53,2.40
2019,03,17,08,54,2.50
2019,03,17,08,55,2.60
2019,03,17,08,56,2.60
2019,03,17,08,57,2.70
2019,03,17,08,58,2.80
2019,03,17,08,59,2.80
2019,03,17,09,00,2.90
2019,03,17,09,01,2.90
2019,03,17,09,02,3.00
2019,03,17,09,03,3.00
2019,03,17,09,04,3.10
2019,03,17,09,05,3.10
2019,03,17,09,06,3.20
2019,03,17,09,07,3.20
2019,03,17,09,08,3.30
2019,03,17,09,09,3.40
2019,03,17,09,10,3.50
2019,03,17,09,11,3.50
2019,03,17,09,12,3.60
2019,03,17,09,13,3.70
2019,03,17,09,14,3.70
2019,03,17,09,15,3.80
2019,03,17,09,16,3.80
2019,03,17,09,17,3.90
2019,03,17,09,18,3.90
2019,03,17,09,19,4.00
2019,03,17,09,20,4.10
2019,03,17,09,21,4.20
2019,03,17,09,22,4.30
2019,03,17,09,23,4.40
2019,03,17,09,24,4.60
2019,03,17,09,25,4.70
2019,03,17,09,26,4.80
2019,03,17,09,27,5.00
2019,03,17,09,28,5.10
2019,03,17,09,29,5.20
2019,03,17,09,30,5.40
2019,03,17,09,31,5.60
2019,03,17,09,32,5.70
2019,03,17,09,33,5.90
2019,03,17,09,34,6.00
2019,03,17,09,35,6.10
2019,03,17,09,36,6.20
2019,03,17,09,37,6.30
2019,03,17,09,38,6.50
2019,03,17,09,39,6.60
2019,03,17,09,40,6.70
2019,03,17,09,41,6.80
2019,03,17,09,42,7.00
2019,03,17,09,43,7.10
2019,03,17,09,44,7.20
2019,03,17,09,45,7.30
2019,03,17,09,46,7.50
2019,03,17,09,47,7.60
2019,03,17,09,48,7.70
2019,03,17,09,49,7.80
2019,03,17,09,50,7.80
2019,03,17,09,51,7.90
2019,03,17,09,52,7.90
2019,03,17,09,53,8.00
2019,03,17,09,54,8.10
2019,03,17,09,55,8.20
2019,03,17,09,56,8.20
2019,03,17,09,57,8.30
2019,03,17,09,58,8.40
2019,03,17,09,59,8.40
2019,03,17,10,00,8.50
2019,03,17,10,01,8.60
2019,03,17,10,02,8.70
2019,03,17,10,03,8.80
2019,03,17,10,04,8.80
2019,03,17,10,05,8.80
2019,03,17,10,06,8.90
2019,03,17,10,07,8.90
2019,03,17,10,08,8.90
2019,03,17,10,09,9.00
2019,03,17,10,10,9.00
2019,03,17,10,11,9.10
2019,03,17,10,12,9.10
2019,03,17,10,13,9.30
2019,03,17,10,14,9.40
2019,03,17,10,15,9.40
2019,03,17,10,16,9.50
2019,03,17,10,17,9.60
2019,03,17,10,18,9.60
2019,03,17,10,19,9.70
2019,03,17,10,20,9.80
2019,03,17,10,21,9.90
2019,03,17,10,22,10.00
2019,03,17,10,23,10.10
2019,03,17,10,24,10.20
2019,03,17,10,25,10.20
2019,03,17,10,26,10.30
2019,03,17,10,27,10.30
2019,03,17,10,28,10.40
2019,03,17,10,29,10.50
2019,03,17,10,30,10.60
2019,03,17,10,31,10.70
2019,03,17,10,32,10.80
2019,03,17,10,33,10.80
2019,03,17,10,34,10.90
2019,03,17,10,35,11.00
2019,03,17,10,36,11.20
2019,03,17,10,37,11.30
2019,03,17,10,38,11.40
2019,03,17,10,39,11.40
2019,03,17,10,40,11.60
2019,03,17,10,41,11.70
2019,03,17,10,42,11.80
2019,03,17,10,43,11.90
2019,03,17,10,44,12.00
2019,03,17,10,45,12.10
2019,03,17,10,46,12.20
2019,03,17,10,47,12.30
2019,03,17,10,48,12.30
2019,03,17,10,49,12.30
2019,03,17,10,50,12.30
2019,03,17,10,51,12.40
2019,03,17,10,52,12.50
2019,03,17,10,53,12.60
2019,03,17,10,54,12.60
2019,03,17,10,55,12.70
2019,03,17,10,56,12.80
2019,03,17,10,57,13.00
2019,03,17,10,58,13.00
2019,03,17,10,59,13.00
2019,03,17,11,00,13.00
2019,03,17,11,01,13.10
2019,03,17,11,02,13.10
2019,03,17,11,03,13.20
2019,03,17,11,04,13.20
2019,03,17,11,05,13.20
2019,03,17,11,06,13.30
2019,03,17,11,07,13.40
2019,03,17,11,08,13.40
2019,03,17,11,09,13.40
2019,03,17,11,10,13.40
2019,03,17,11,11,13.50
2019,03,17,11,12,13.50
2019,03,17,11,13,13.60
2019,03,17,11,14,13.60
2019,03,17,11,15,13.60
2019,03,17,11,16,13.60
2019,03,17,11,17,13.70
2019,03,17,11,18,13.70
2019,03,17,11,19,13.70
2019,03,17,11,20,13.70
2019,03,17,11,21,13.70
2019,03,17,11,22,13.70
2019,03,17,11,23,13.80
2019,03,17,11,24,13.80
2019,03,17,11,25,13.80
2019,03,17,11,26,13.80
2019,03,17,11,27,13.90
2019,03,17,11,28,13.90
2019,03,17,11,29,13.90
2019,03,17,11,30,14.00
2019,03,17,11,31,14.10
2019,03,17,11,32,14.20
2019,03,17,11,33,14.20
2019,03,17,11,34,14.20
2019,03,17,11,35,14.20
2019,03,17,11,36,14.20
2019,03,17,11,37,14.10
2019,03,17,11,38,14.10
2019,03,17,11,39,14.10
2019,03,17,11,40,14.10
2019,03,17,11,41,14.00
2019,03,17,11,42,14.00
2019,03,17,11,43,13.90
2019,03,17,11,44,13.90
2019,03,17,11,45,13.80
2019,03,17,11,46,13.80
2019,03,17,11,47,13.80
2019,03,17,11,48,13.80
2019,03,17,11,49,13.80
2019,03,17,11,50,13.70
2019,03,17,11,51,13.80
2019,03,17,11,52,13.80
2019,03,17,11,53,13.90
2019,03,17,11,54,13.90
2019,03,17,11,55,13.90
2019,03,17,11,56,13.90
2019,03,17,11,57,13.90
2019,03,17,11,58,13.90
2019,03,17,11,59,13.90
2019,03,17,12,00,13.80
2019,03,17,12,01,13.80
2019,03,17,12,02,13.80
2019,03,17,12,03,13.80
2019,03,17,12,04,13.80
2019,03,17,12,05,13.80
2019,03,17,12,06,14.00
2019,03,17,12,07,14.00
2019,03,17,12,08,14.10
2019,03,17,12,09,14.10
2019,03,17,12,10,14.10
2019,03,17,12,11,14.00
2019,03,17,12,12,14.00
2019,03,17,12,13,14.00
2019,03,17,12,14,14.10
2019,03,17,12,15,14.10
2019,03,17,12,16,14.00
2019,03,17,12,17,14.10
2019,03,17,12,18,14.20
2019,03,17,12,19,14.30
2019,03,17,12,20,14.30
2019,03,17,12,21,14.40
2019,03,17,12,22,14.40
2019,03,17,12,23,14.40
2019,03,17,12,24,14.30
2019,03,17,12,25,14.30
2019,03,17,12,26,14.30
2019,03,17,12,27,14.30
2019,03,17,12,28,14.20
2019,03,17,12,29,14.20
2019,03,17,12,30,14.20
2019,03,17,12,31,14.30
2019,03,17,12,32,14.40
2019,03,17,12,33,14.50
2019,03,17,12,34,14.60
2019,03,17,12,35,14.60
2019,03,17,12,36,14.60
2019,03,17,12,37,14.60
2019,03,17,12,38,14.70
2019,03,17,12,39,14.70
2019,03,17,12,40,14.70
2019,03,17,12,41,14.80
2019,03,17,12,42,14.80
2019,03,17,12,43,14.90
2019,03,17,12,44,15.00
2019,03,17,12,45,15.10
2019,03,17,12,46,15.10
2019,03,17,12,47,15.10
2019,03,17,12,48,15.10
2019,03,17,12,49,15.00
2019,03,17,12,50,15.00
2019,03,17,12,51,14.90
2019,03,17,12,52,14.90
2019,03,17,12,53,14.80
2019,03,17,12,54,14.90
2019,03,17,12,55,14.90
2019,03,17,12,56,14.90
2019,03,17,12,57,15.00
2019,03,17,12,58,15.00
2019,03,17,12,59,15.10
2019,03,17,13,00,15.10
2019,03,17,13,01,15.10
2019,03,17,13,02,15.20
2019,03,17,13,03,15.20
2019,03,17,13,04,15.20
2019,03,17,13,05,15.30
2019,03,17,13,06,15.40
2019,03,17,13,07,15.40
2019,03,17,13,08,15.60
2019,03,17,13,09,15.70
2019,03,17,13,10,15.80
2019,03,17,13,11,15.90
2019,03,17,13,12,15.80
2019,03,17,13,13,15.70
2019,03,17,13,14,15.70
2019,03,17,13,15,15.70
2019,03,17,13,16,15.70
2019,03,17,13,17,15.70
2019,03,17,13,18,15.60
2019,03,17,13,19,15.60
2019,03,17,13,20,15.70
2019,03,17,13,21,15.80
2019,03,17,13,22,15.90
2019,03,17,13,23,16.00
2019,03,17,13,24,16.00
2019,03,17,13,25,16.10
2019,03,17,13,26,16.20
2019,03,17,13,27,16.30
2019,03,17,13,28,16.20
2019,03,17,13,29,16.30
2019,03,17,13,30,16.40
2019,03,17,13,31,16.40
2019,03,17,13,32,16.50
2019,03,17,13,33,16.50
2019,03,17,13,34,16.60
2019,03,17,13,35,16.70
2019,03,17,13,36,16.80
2019,03,17,13,37,16.80
2019,03,17,13,38,16.90
2019,03,17,13,39,16.80
2019,03,17,13,40,16.70
2019,03,17,13,41,16.60
2019,03,17,13,42,16.70
2019,03,17,13,43,16.70
2019,03,17,13,44,16.80
2019,03,17,13,45,16.80
2019,03,17,13,46,16.80
2019,03,17,13,47,16.80
2019,03,17,13,48,17.00
2019,03,17,13,49,17.10
2019,03,17,13,50,17.20
2019,03,17,13,51,17.30
2019,03,17,13,52,17.20
2019,03,17,13,53,17.20
2019,03,17,13,54,17.20
2019,03,17,13,55,17.30
2019,03,17,13,56,17.30
2019,03,17,13,57,17.40
2019,03,17,13,58,17.50
2019,03,17,13,59,17.50
2019,03,17,14,00,17.60
2019,03,17,14,01,17.70
2019,03,17,14,02,17.70
2019,03,17,14,03,17.70
2019,03,17,14,04,17.70
2019,03,17,14,05,17.60
2019,03,17,14,06,17.50
2019,03,17,14,07,17.30
2019,03,17,14,08,17.20
2019,03,17,14,09,17.10
2019,03,17,14,10,17.10
2019,03,17,14,11,17.00
2019,03,17,14,12,16.90
2019,03,17,14,13,16.90
2019,03,17,14,14,16.90
2019,03,17,14,15,17.00
2019,03,17,14,16,17.00
2019,03,17,14,17,17.00
2019,03,17,14,18,17.20
2019,03,17,14,19,17.40
2019,03,17,14,20,17.60
2019,03,17,14,21,17.70
2019,03,17,14,22,17.70
2019,03,17,14,23,17.70
2019,03,17,14,24,17.70
2019,03,17,14,25,17.70
2019,03,17,14,26,17.60
2019,03,17,14,27,17.60
2019,03,17,14,28,17.70
2019,03,17,14,29,17.80
2019,03,17,14,30,17.80
2019,03,17,14,31,17.80
2019,03,17,14,32,17.80
2019,03,17,14,33,17.80
2019,03,17,14,34,17.70
2019,03,17,14,35,17.70
2019,03,17,14,36,17.70
2019,03,17,14,37,17.70
2019,03,17,14,38,17.60
2019,03,17,14,39,17.50
2019,03,17,14,40,17.50
2019,03,17,14,41,17.50
2019,03,17,14,42,17.50
2019,03,17,14,43,17.50
2019,03,17,14,44,17.60
2019,03,17,14,45,17.60
2019,03,17,14,46,17.60
2019,03,17,14,47,17.60
2019,03,17,14,48,17.70
2019,03,17,14,49,17.80
2019,03,17,14,50,17.80
2019,03,17,14,51,17.70
2019,03,17,14,52,17.70
2019,03,17,14,53,17.70
2019,03,17,14,54,17.70
2019,03,17,14,55,17.70
2019,03,17,14,56,17.60
2019,03,17,14,57,17.60
2019,03,17,14,58,17.60
2019,03,17,14,59,17.50
2019,03,17,15,00,17.50
2019,03,17,15,01,17.40
2019,03,17,15,02,17.30
2019,03,17,15,03,17.40
2019,03,17,15,04,17.40
2019,03,17,15,05,17.30
2019,03,17,15,06,17.30
2019,03,17,15,07,17.30
2019,03,17,15,08,17.40
2019,03,17,15,09,17.40
2019,03,17,15,10,17.50
2019,03,17,15,11,17.40
2019,03,17,15,12,17.50
2019,03,17,15,13,17.50
2019,03,17,15,14,17.60
2019,03,17,15,15,17.70
2019,03,17,15,16,17.60
2019,03,17,15,17,17.60
2019,03,17,15,18,17.60
2019,03,17,15,19,17.60
2019,03,17,15,20,17.60
2019,03,17,15,21,17.60
2019,03,17,15,22,17.70
2019,03,17,15,23,17.90
2019,03,17,15,24,18.00
2019,03,17,15,25,18.00
2019,03,17,15,26,18.00
2019,03,17,15,27,17.90
2019,03,17,15,28,17.90
2019,03,17,15,29,18.00
2019,03,17,15,30,18.10
2019,03,17,15,31,18.20
2019,03,17,15,32,18.40
2019,03,17,15,33,18.50
2019,03,17,15,34,18.40
2019,03,17,15,35,18.40
2019,03,17,15,36,18.30
2019,03,17,15,37,18.30
2019,03,17,15,38,18.30
2019,03,17,15,39,18.30
2019,03,17,15,40,18.40
2019,03,17,15,41,18.40
2019,03,17,15,42,18.30
2019,03,17,15,43,18.30
2019,03,17,15,44,18.20
2019,03,17,15,45,18.10
2019,03,17,15,46,18.00
2019,03,17,15,47,18.00
2019,03,17,15,48,18.00
2019,03,17,15,49,18.00
2019,03,17,15,50,18.10
2019,03,17,15,51,18.20
2019,03,17,15,52,18.20
2019,03,17,15,53,18.20
2019,03,17,15,54,18.20
2019,03,17,15,55,18.20
2019,03,17,15,56,18.20
2019,03,17,15,57,18.30
2019,03,17,15,58,18.40
2019,03,17,15,59,18.40
2019,03,17,16,00,18.50
2019,03,17,16,01,18.60
2019,03,17,16,02,18.60
2019,03,17,16,03,18.60
2019,03,17,16,04,18.60
2019,03,17,16,05,18.60
2019,03,17,16,06,18.60
2019,03,17,16,07,18.70
2019,03,17,16,08,18.70
2019,03,17,16,09,18.80
2019,03,17,16,10,18.80
2019,03,17,16,11,18.80
2019,03,17,16,12,18.80
2019,03,17,16,13,18.80
2019,03,17,16,14,18.60
2019,03,17,16,15,18.50
2019,03,17,16,16,18.40
2019,03,17,16,17,18.30
2019,03,17,16,18,18.10
2019,03,17,16,19,17.80
2019,03,17,16,20,17.50
2019,03,17,16,21,17.30
2019,03,17,16,22,17.10
2019,03,17,16,23,16.90
2019,03,17,16,24,16.70
2019,03,17,16,25,16.50
2019,03,17,16,26,16.30
2019,03,17,16,27,16.30
2019,03,17,16,28,16.30
2019,03,17,16,29,16.30
2019,03,17,16,30,16.30
2019,03,17,16,31,16.20
2019,03,17,16,32,16.20
2019,03,17,16,33,16.10
2019,03,17,16,34,16.00
2019,03,17,16,35,15.80
2019,03,17,16,36,15.70
2019,03,17,16,37,15.70
2019,03,17,16,38,15.70
2019,03,17,16,39,15.80
2019,03,17,16,40,15.70
2019,03,17,16,41,15.60
2019,03,17,16,42,15.60
2019,03,17,16,43,15.60
2019,03,17,16,44,15.70
2019,03,17,16,45,15.70
2019,03,17,16,46,15.60
2019,03,17,16,47,15.70
2019,03,17,16,48,15.80
2019,03,17,16,49,15.90
2019,03,17,16,50,15.90
2019,03,17,16,51,15.90
2019,03,17,16,52,15.90
2019,03,17,16,53,16.00
2019,03,17,16,54,16.10
2019,03,17,16,55,16.10
2019,03,17,16,56,16.00
2019,03,17,16,57,15.90
2019,03,17,16,58,15.80
2019,03,17,16,59,15.80
2019,03,17,17,00,15.70
2019,03,17,17,01,15.80
2019,03,17,17,02,15.80
2019,03,17,17,03,15.90
2019,03,17,17,04,16.00
2019,03,17,17,05,16.00
2019,03,17,17,06,16.10
2019,03,17,17,07,16.10
2019,03,17,17,08,16.20
2019,03,17,17,09,16.30
2019,03,17,17,10,16.40
2019,03,17,17,11,16.60
2019,03,17,17,12,16.70
2019,03,17,17,13,16.70
2019,03,17,17,14,16.70
2019,03,17,17,15,16.80
2019,03,17,17,16,16.70
2019,03,17,17,17,16.60
2019,03,17,17,18,16.60
2019,03,17,17,19,16.60
2019,03,17,17,20,16.60
2019,03,17,17,21,16.70
2019,03,17,17,22,16.70
2019,03,17,17,23,16.70
2019,03,17,17,24,16.70
2019,03,17,17,25,16.70
2019,03,17,17,26,16.80
2019,03,17,17,27,16.80
2019,03,17,17,28,16.70
2019,03,17,17,29,16.50
2019,03,17,17,30,16.30
2019,03,17,17,31,16.20
2019,03,17,17,32,16.00
2019,03,17,17,33,15.90
2019,03,17,17,34,15.90
2019,03,17,17,35,16.00
2019,03,17,17,36,16.00
2019,03,17,17,37,16.00
2019,03,17,17,38,16.00
2019,03,17,17,39,16.00
2019,03,17,17,40,16.00
2019,03,17,17,41,16.10
2019,03,17,17,42,16.10
2019,03,17,17,43,16.10
2019,03,17,17,44,16.10
2019,03,17,17,45,16.20
2019,03,17,17,46,16.20